This is the latest recevied weather packets stored in our database for station/object KN6CRX. If no packets are shown the sender has not sent any weather packets the latest 10 day(s).
| Time | Temp. | Humidity | Pressure | Rain* | Wind** | Luminosity | Snow |
|---|---|---|---|---|---|---|---|
| 1787930292 | 21.67° C | 54% | 1022 hPa | 0 mm | - | 32 W/m² | - |
| 1787929992 | 21.67° C | 54% | 1021.5 hPa | 0 mm | - | 66 W/m² | - |
| 1787929690 | 21.67° C | 53% | 1021.6 hPa | 0 mm | - | 109 W/m² | - |
| 1787929385 | 21.67° C | 53% | 1021.4 hPa | 0 mm | - | 110 W/m² | - |
| 1787929082 | 21.67° C | 53% | 1021.3 hPa | 0 mm | - | 98 W/m² | - |
| 1787928778 | 21.11° C | 53% | 1021.4 hPa | 0 mm | - | 76 W/m² | - |
| 1787928477 | 20.56° C | 54% | 1021.2 hPa | 0 mm | - | 96 W/m² | - |
| 1787928171 | 20.56° C | 57% | 1021.4 hPa | 0 mm | - | 76 W/m² | - |
| 1787927870 | 20.56° C | 58% | 1021.6 hPa | 0 mm | - | 52 W/m² | - |
| 1787927564 | 20.56° C | 56% | 1021.4 hPa | 0 mm | - | 32 W/m² | - |
| 1787927259 | 20.56° C | 57% | 1021.5 hPa | 0 mm | - | 30 W/m² | - |
| 1787926955 | 20° C | 58% | 1021.4 hPa | 0 mm | - | 57 W/m² | - |
| 1787926650 | 20° C | 57% | 1021.4 hPa | 0 mm | - | 47 W/m² | - |
| 1787926348 | 20° C | 58% | 1021.2 hPa | 0 mm | - | 40 W/m² | - |
| 1787926043 | 20° C | 58% | 1021.2 hPa | 0 mm | - | 34 W/m² | - |
| 1787925743 | 20° C | 59% | 1021.4 hPa | 0 mm | - | 44 W/m² | - |
| 1787925442 | 20° C | 59% | 1021.3 hPa | 0 mm | - | 38 W/m² | - |
| 1787925137 | 20° C | 57% | 1020.9 hPa | 0 mm | - | 45 W/m² | - |
| 1787924835 | 20° C | 58% | 1020.5 hPa | 0 mm | - | 49 W/m² | - |
| 1787924531 | 20° C | 59% | 1020.7 hPa | 0 mm | - | 39 W/m² | - |
| 1787924226 | 19.44° C | 59% | 1020.7 hPa | 0 mm | - | 45 W/m² | - |
| 1787923921 | 19.44° C | 58% | 1020.5 hPa | 0 mm | - | 51 W/m² | - |
| 1787923620 | 19.44° C | 60% | 1020.2 hPa | 0 mm | - | 38 W/m² | - |
| 1787923316 | 19.44° C | 59% | 1020.3 hPa | 0 mm | - | 22 W/m² | - |
| 1787923016 | 19.44° C | 59% | 1020.5 hPa | 0 mm | - | 14 W/m² | - |
* Rain latest hour (hover to see other rain measurements)
** Current wind speed in m/s (hover to see current wind gust speed)